SBIRS GEO-6 (USA 336)

Last updated on Sun Dec 07 2025 00:02:50 GMT+0000 (Coordinated Universal Time)

1 53355U 22092A 25339.88358655 -.00000282 00000+0 00000+0 0 9997 2 53355 3.5977 314.7028 0002454 301.1952 276.1348 1.00270526 12293
UTC large
Height (km)
Speed (km/s)
/
Latitude / Longitude
Inclination (degrees)
Orbital Period (minutes)
Azimuth
Elevation
Range (km)
Doppler Factor

Next 0 passes for location: London (51.5072 / 0.1276)

Sorry there are no passes over London.